Terminal Aerodrome Forecast
Issued by NWS Sioux Falls, SD

Home | Current Version | Previous Version | Graphics & Text | Print | Product List | Glossary On
Versions: 1 2 3 4 5 6 7 8 9 10 11 12 13 14 15 16 17 18 19 20 21 22
000
FTUS43 KFSD 221731
TAFHON
TAF
KHON 221731Z 2218/2318 13008KT P6SM OVC040
     FM222000 12007KT 1 1/2SM -SN OVC020
     FM222200 11006KT 3/4SM -SN OVC008
     FM230330 VRB03KT 3SM -SN OVC008
     FM230500 VRB03KT P6SM OVC010
     FM231100 30006KT P6SM BKN020
     FM231700 31006KT P6SM SCT020=

USA.gov is the U.S. government's official web portal to all federal, state and local government web resources and services.